Caldwell, NJ

2:38 PM EDT on September 26, 2016 (GMT -0400)
Essex County

Weather History for KCDW - June, 2012

Change the Weather History Date:

Friday, June 22, 2012

  Actual Average Record
Temperature  
Mean Temperature 81 °F -  
Max Temperature 93 °F 80 °F 98 °F (1953)
Min Temperature 71 °F 58 °F 43 °F (1977)
Cooling Degree Days 16    
Growing Degree Days 31 (Base 50)    
Moisture  
Dew Point 69 °F    
Average Humidity 71    
Maximum Humidity 94    
Minimum Humidity 44    
Precipitation  
Precipitation 0.09 in - - ()
Sea Level Pressure  
Sea Level Pressure 29.81 in    
Wind  
Wind Speed 2 mph (SSW)    
Max Wind Speed 20 mph    
Max Gust Speed 28 mph    
Visibility 7 miles    
Events Rain    
Averages and records for this station are not official NWS values.
T = Trace of Precipitation, MM = Missing Value Source: NWS Daily Summary

Daily Weather History Graph

Daily Weather History Graph

Search for Another Location

Airport or City:

Trip Planner

Search our weather history database for the weather conditions in past years. The results will help you decide how hot, cold, wet, or windy it might be!

Date:

Astronomy

Jun. 22, 2012 Rise Set
Actual Time 5:25 AM EDT 8:32 PM EDT
Civil Twilight 4:52 AM EDT 9:06 PM EDT
Nautical Twilight 4:09 AM EDT 9:49 PM EDT
Astronomical Twilight 3:18 AM EDT 10:39 PM EDT
Moon 8:23 AM EDT (6/22) 10:26 PM EDT (6/22)
Length of Visible Light 16h 13m
Length of Day
15h 06m
Waxing Crescent, 9% of the Moon is Illuminated
Jun 22
Waxing Crescent
Jun 26
First Quarter
Jul 3
Full
Jul 10
Last Quarter
Jul 19
New

Hourly Weather History & Observations

Time (EDT) Temp. Heat Index Dew Point Humidity Pressure Visibility Wind Dir Wind Speed Gust Speed Precip Events Conditions
12:53 AM 81.0 °F 84.1 °F 69.1 °F 67% 29.81 in 8.0 mi South 3.5 mph - N/A   Clear
1:53 AM 80.1 °F 82.9 °F 69.1 °F 69% 29.81 in 8.0 mi Calm Calm - N/A   Clear
2:53 AM 79.0 °F - 69.1 °F 72% 29.81 in 7.0 mi Calm Calm - N/A   Clear
3:53 AM 78.1 °F - 69.1 °F 74% 29.80 in 6.0 mi Calm Calm - N/A   Haze
4:53 AM 77.0 °F - 69.1 °F 76% 29.80 in 5.0 mi Calm Calm - N/A   Haze
5:53 AM 77.0 °F - 69.1 °F 76% 29.81 in 5.0 mi Calm Calm - N/A   Haze
6:53 AM 78.1 °F - 69.1 °F 74% 29.81 in 5.0 mi Calm Calm - N/A   Haze
7:53 AM 80.1 °F 82.9 °F 69.1 °F 69% 29.81 in 5.0 mi Calm Calm - N/A   Haze
8:53 AM 82.9 °F 85.8 °F 68.0 °F 60% 29.81 in 6.0 mi Calm Calm - N/A   Haze
9:53 AM 86.0 °F 89.4 °F 68.0 °F 55% 29.81 in 7.0 mi Calm Calm - N/A   Clear
10:53 AM 89.1 °F 93.7 °F 69.1 °F 52% 29.81 in 8.0 mi Calm Calm - N/A   Clear
11:53 AM 91.0 °F 93.8 °F 66.0 °F 44% 29.81 in 9.0 mi Variable 3.5 mph - N/A   Scattered Clouds
12:53 PM 90.0 °F 93.6 °F 68.0 °F 48% 29.80 in 8.0 mi NW 6.9 mph - N/A   Clear
1:53 PM 87.1 °F 92.8 °F 71.1 °F 59% 29.80 in 7.0 mi NW 5.8 mph - N/A   Partly Cloudy
2:53 PM 90.0 °F 94.5 °F 69.1 °F 50% 29.76 in 8.0 mi SSE 3.5 mph - 0.00 in   Clear
3:53 PM 89.1 °F 94.1 °F 70.0 °F 53% 29.77 in 7.0 mi South 19.6 mph 27.6 mph N/A   Partly Cloudy
4:53 PM 84.9 °F 88.2 °F 68.0 °F 57% 29.75 in 9.0 mi Variable 5.8 mph - N/A   Clear
5:53 PM 75.0 °F - 66.0 °F 73% 29.83 in 9.0 mi WNW 8.1 mph - 0.00 in Rain Light Rain
6:06 PM 71.6 °F - 69.8 °F 94% 29.81 in 2.0 mi South 3.5 mph - 0.06 in Rain Rain
6:13 PM 71.6 °F - 68.0 °F 88% 29.80 in 1.0 mi SE 4.6 mph - 0.09 in Rain Rain
6:20 PM 71.6 °F - 68.0 °F 88% 29.80 in 5.0 mi SSE 6.9 mph - 0.09 in Rain Light Rain
6:53 PM 73.9 °F - 69.1 °F 85% 29.83 in 5.0 mi NW 3.5 mph - 0.09 in   Haze
7:53 PM 73.0 °F - 69.1 °F 87% 29.83 in 7.0 mi Calm Calm - N/A   Clear
8:53 PM 72.0 °F - 69.1 °F 91% 29.83 in 8.0 mi Calm Calm - N/A   Clear
9:53 PM 72.0 °F - 66.9 °F 84% 29.84 in 9.0 mi Calm Calm - N/A   Clear
10:53 PM 71.1 °F - 68.0 °F 90% 29.83 in 7.0 mi Calm Calm - N/A   Clear
11:53 PM 72.0 °F - 68.0 °F 87% 29.84 in 8.0 mi Calm Calm - N/A   Scattered Clouds